Weather in El-Aaiún

Sahrawi Arab Democratic Republic     27°08′59″N   13°12′11″W
temp.,
°C
wind,
m/s
gust,
m/s
humid.,
%
clouds,
%
prec.,
mm/h
press.,
hPa
HPBL,
m
8 december, wed
wed801:00+17ne5104369 0.0 1023146
04:00+17ene71148100 0.0 1021174
07:00+16ne4438100 0.0 102242
10:00+17ne574998 0.0 1024236
13:00+22ne552994 0.0 1024679
16:00+23nne874072 0.0 10221145
19:00+18nne913665 0.0 1022441
22:00+16ne711785 0.0 1024384
9 december, thu
thu901:00+15nne59850 0.0 1024205
04:00+15nne59911 0.0 1023187
07:00+15ne612932 0.1 1022286
10:00+18nne811750 0.0 1024962
13:00+21nne10115313 0.0 10231372
16:00+20nne11115614 0.0 10211351
19:00+18nne101263100 0.0 10211185
22:00+18nne81060100 0.1 10211266
10 december, fri
fri1001:00+15ne611840 0.1 1021263
04:00+14ne49940 0.0 1020177
07:00+14ne59941 0.0 1020147
10:00+15e58400 0.0 1021219
13:00+23ese67250 0.0 1021757
16:00+26e56130 0.0 10181378
19:00+20nne912330 0.0 1019200
22:00+17ne915690 0.0 1021289
11 december, sat
sat1101:00+15ne611770 0.0 1021190
04:00+14ne69720 0.0 1020132
07:00+14ne59730 0.0 1020115
10:00+15ne610770 0.0 1021278
13:00+22ne66370 0.0 1020799
16:00+24nne66320 0.0 10171082
19:00+18n810710 0.0 1018231
22:00+16nne58840 0.0 1019155
12 december, sun
sun1201:00+15ne57900 0.0 1019107
04:00+14ne45810 0.0 101865
07:00+14ene44510 0.0 101842
10:00+16e46330 0.0 1020140
13:00+23e56190 0.0 1019747
16:00+26e34160 0.0 10171367
19:00+20nne34350 0.0 101744
22:00+18ne58370 0.0 101986